Regional Weather Roundup
Issued by NWS

Home | Current Version | Previous Version | Text Only | Print | Product List | Glossary On
Versions: 1 2 3 4 5 6 7 8 9 10 11 12 13 14 15 16 17 18 19 20 21 22 23 24 25 26 27 28 29 30 31 32 33 34 35 36 37 38 39 40 41 42 43 44 45 46 47 48 49 50
000
ASUS43 KDTX 121910
RWRMI
MICHIGAN HOURLY REGIONAL WEATHER ROUNDUP
NATIONAL WEATHER SERVICE DETROIT/PONTIAC MI
300 PM EDT SAT JUL 12 2014

NOTE: "FAIR" INDICATES FEW OR NO CLOUDS BELOW 12,000 FEET WITH NO
SIGNIFICANT WEATHER AND/OR OBSTRUCTION TO VISIBILITY.

MIZ047>049-052>055-059>063-066>070-074>076-081>083-122000-
SOUTHEAST LOWER MICHIGAN

CITY           SKY/WX    TMP DP  RH WIND       PRES   REMARKS
ADRIAN         CLOUDY    85  64  49 SW12G22   30.08F
ALMA           CLOUDY    80  63  56 S6        30.04F
ANN ARBOR      PTSUNNY   83  61  47 S9        30.08F
BAD AXE        PTSUNNY   81  58  44 S10       30.06F
CARO           CLOUDY    84  62  46 S9        30.05F
DETROIT CITY   CLOUDY    85  61  44 S14       30.08F
DETROIT        PTSUNNY   84  61  45 S13       30.09F
FLINT          PTSUNNY   83  63  50 MISG      30.06F
GROSSE ILE     PTSUNNY   81  66  61 SE10      30.07F
HILLSDALE      LGT RAIN  75  72  91 S5        30.09F
HOWELL         PTSUNNY   80  63  55 S13G18    30.07F

CITY           SKY/WX    TMP DP  RH WIND       PRES   REMARKS
JACKSON        PTSUNNY   84  66  54 S13       30.07F
LAMBERTVILLE   CLOUDY    84  61  45 SW8       30.09F
LANSING        CLOUDY    82  65  56 S9G23     30.05F
LAPEER         FAIR      82  57  42 SW12      30.08S
MASON          PTSUNNY   81  66  60 S3        30.06F
MONROE         PTSUNNY   86  61  42 S12       30.07F
PONTIAC        CLOUDY    82  60  47 SW12      30.08F
PORT HOPE        N/A     82  58  43 VRB6      30.03F
PORT HURON     PTSUNNY   82  63  51 S10       30.08F
TRI CITIES     CLOUDY    82  63  52 S13       30.05F
TROY           PTSUNNY   85  57  38 S12       30.09F
SAGINAW HB     CLOUDY    82  61  47 S10       30.04F
$$
MIZ043>046-050>051-056>058-064>065-071>073-077>080-122000-
SOUTHWEST LOWER MICHIGAN

CITY           SKY/WX    TMP DP  RH WIND       PRES   REMARKS
BATTLE CREEK   CLOUDY    80  69  69 S13       30.05F
BENTON HARBOR  CLOUDY    73  68  84 S9        29.99F
BIG RAPIDS     LGT RAIN  73  66  77 S7        30.04S
COLDWATER      CLOUDY    79  69  72 S9        30.07F
FREMONT        CLOUDY    75  68  77 S7G16     30.02F
HOLLAND        CLOUDY    76  71  85 SE9       30.00F
GRAND RAPIDS   LGT RAIN  80  70  71 S12       30.02F
IONIA          CLOUDY    79  65  63 S7        30.02F
KALAMAZOO      LGT RAIN  78  68  71 S18       30.04F
LUDINGTON      CLOUDY    77  71  82 S6        29.99F
MARSHALL       PTSUNNY   80  69  68 S8G17     30.05F
MOUNT PLEASANT CLOUDY    80  65  60 S8        30.03F
MUSKEGON       CLOUDY    75  68  78 S8        30.00F
SOUTH HAVEN    LGT RAIN  74  71  87 S8G17     29.99F
$$
MIZ016>042-122000-
NORTHERN LOWER MICHIGAN

CITY           SKY/WX    TMP DP  RH WIND       PRES   REMARKS
ALPENA         CLOUDY    79  64  60 S8        30.00F
BEAVER ISLAND  CLOUDY    67  62  81 SW15      30.00S
BELLAIRE       LGT RAIN  76  65  68 CALM      30.00S
CADILLAC       CLOUDY    77  65  66 S12       30.03F
CHARLEVOIX     CLOUDY    77  64  65 SW9       30.02F
FRANKFORT      CLOUDY    75  64  67 W5        29.99F
GAYLORD        CLOUDY    77  63  61 SW15      30.03F
GRAYLING       CLOUDY    76  61  59 S8        30.04F
HARBOR SPRINGS CLOUDY    74  66  74 CALM      29.98F
HOUGHTON LAKE  CLOUDY    77  62  59 S8        30.05F
MANISTEE       CLOUDY    75  64  69 S5        30.00F
OSCODA         CLOUDY    81  58  45 SW15      30.02F
PELLSTON       CLOUDY    77  65  66 SW8       30.00S
ROGERS CITY    CLOUDY    79  68  69 SW8       30.00S
TRAVERSE CITY  CLOUDY    78  63  59 S6        29.99F
$$
MIZ007>008-015-122000-
EASTERN UPPER MICHIGAN

CITY           SKY/WX    TMP DP  RH WIND       PRES   REMARKS
KINROSS        PTSUNNY   75  64  69 S7G17     29.98S
MACKINAC ISLAN CLOUDY    69  61  74 W9G16     29.99F
NEWBERRY       CLOUDY    74  65  74 S10G17    29.96S
S. S. MARIE    CLOUDY    77  64  64 SW9       29.96S
MUNISING         N/A     65  59  81 N8        29.93F
$$
MIZ004>006-011>014-085-122000-
CENTRAL UPPER MICHIGAN

CITY           SKY/WX    TMP DP  RH WIND       PRES   REMARKS
MANISTIQUE     PTSUNNY   64  59  83 S13G20    29.98R
ESCANABA       CLOUDY    73  63  68 S10       29.96S
MENOMINEE      CLOUDY    75  66  73 SW7       29.96F
SAWYER-GWINN   MOSUNNY   75  66  73 NE9       29.96S
$$
MIZ001>003-009>011-084-122000-
WESTERN UPPER MICHIGAN

CITY           SKY/WX    TMP DP  RH WIND       PRES   REMARKS
IRON MOUNTAIN  CLOUDY    83  66  56 VRB6      29.95S
HOUGHTON       CLOUDY    72  60  66 W7        29.94F
COPPER HARBOR    N/A     62  54  74 CALM      29.95R
IRONWOOD       CLOUDY    73  57  56 NW6       29.94F
$$

ABBREVIATIONS USED IN REMARKS
   TC - TEMPERATURE IN CELSIUS
  WCI - WIND CHILL INDEX
   HX - HEAT INDEX
  VSB - VISIBILITY




USA.gov is the U.S. government's official web portal to all federal, state and local government web resources and services.